Location: R�serve Fauniques des Laurentides
(47.3100°N, 71.1900°W)
Time: 11:24:11
(UTC-05:00)

Amateur Radio Satellites - All Passes

Search period start: 18 December 2014 10:54
Search period end: 19 December 2014 10:54
Location: R�serve Fauniques des Laurentides, 47.3100°N, 71.1900°W

Satellite Date Start Highest point End Downlink Frequencies (MHz)
Time Altitude Azimuth
UNISAT 6 18 Dec 10:57:37 10:59:54 14° 272° (W) 11:02:13 437.425
POPSAT HIP 1 18 Dec 11:00:22 11:03:10 17° 269° (W) 11:05:59 437.405
HO-68 18 Dec 11:13:02 11:17:40 19° 312° (NW) 11:22:18 435.675
CINEMA 3 18 Dec 11:14:17 11:16:51 15° 300° (WNW) 11:19:27 145.822/145.860
Oscar 11 18 Dec 11:14:23 11:16:30 13° 301° (WNW) 11:18:37 145.826/435.025
CUBEBUG 2 18 Dec 11:14:38 11:17:57 20° 297° (WNW) 11:21:19 437.445
Oscar 19 18 Dec 11:17:11 11:21:29 28° 63° (ENE) 11:25:48 437.125/150
DELFI C3 18 Dec 11:18:27 11:20:13 13° 301° (WNW) 11:22:00 145.870
50 SAT 18 Dec 11:19:35 11:23:24 36° 291° (WNW) 11:27:13 437.505
UKube-1 18 Dec 11:20:45 11:23:16 15° 301° (WNW) 11:25:47 .
HUMSAT D 18 Dec 11:21:16 11:25:04 31° 293° (WNW) 11:28:53 437.325/437.525
ESTCUBE 1 18 Dec 11:21:23 11:25:55 79° 285° (WNW) 11:30:23 437.505/2401.250
ITAMSAT 1 18 Dec 11:28:44 11:31:42 16° 56° (NE) 11:34:39 435.822/435.867
VELOX 1 18 Dec 11:29:03 11:32:55 30° 294° (WNW) 11:36:46 145.980
ZACube-1 18 Dec 11:37:13 11:40:00 16° 299° (WNW) 11:42:48 437.345
SWISSCUBE 18 Dec 11:50:38 11:51:20 10° 86° (E) 11:52:02 437.505
RS-15 18 Dec 11:54:19 12:04:59 63° 117° (ESE) 12:15:44 29.354- 29.394
SPROUT 18 Dec 12:08:12 12:12:31 79° 103° (ESE) 12:16:49 437.525
AISAT 18 Dec 12:12:03 12:14:12 13° 302° (WNW) 12:16:20 437.250
O/OREOS (USA 219) 18 Dec 12:12:05 12:12:31 10° 264° (W) 12:12:57 437.305
TISAT 1 18 Dec 12:13:31 12:17:45 86° 285° (WNW) 12:21:59 437.305
BEESAT 18 Dec 12:14:08 12:17:15 17° 90° (E) 12:20:20 436.000
AO-7 18 Dec 12:16:59 12:21:37 16° 38° (NE) 12:26:16 29.400- 29.500
CUBEBUG 1 18 Dec 12:26:46 12:29:57 20° 297° (WNW) 12:33:07 437.445
YUBILEINY 18 Dec 12:31:24 12:38:35 31° 279° (W) 12:45:47 435.215
Gurwin Techsat 1B 18 Dec 12:45:41 12:50:36 40° 67° (ENE) 12:55:33 435.225
BEESAT 3 18 Dec 12:47:57 12:50:36 17° 112° (ESE) 12:53:18 437.485
PCSat 18 Dec 12:53:04 12:56:25 17° 105° (ESE) 12:59:47 145.827
HORYU 2 18 Dec 12:54:17 12:57:23 19° 61° (ENE) 13:00:31 437.375
Oscar 19 18 Dec 12:55:40 13:00:36 46° 261° (W) 13:05:35 437.125/150
AUBIESAT-1 18 Dec 12:58:07 13:00:40 15° 93° (E) 13:03:07 437.475
ESTCUBE 1 18 Dec 13:00:40 13:02:01 11° 304° (NW) 13:03:22 437.505/2401.250
ITAMSAT 1 18 Dec 13:05:17 13:10:28 90° 75° (ENE) 13:15:42 435.822/435.867
M-CUBED/EXP-1 PRIME 18 Dec 13:20:53 13:24:47 28° 99° (E) 13:28:23 437.505
BEESAT 2 18 Dec 13:24:10 13:27:53 33° 118° (ESE) 13:31:40 435.950
ITUPSAT 1 18 Dec 13:24:33 13:29:21 75° 103° (ESE) 13:34:07 437.325
SWISSCUBE 18 Dec 13:25:09 13:29:58 83° 104° (ESE) 13:34:43 437.505
SPROUT 18 Dec 13:45:58 13:48:01 13° 301° (WNW) 13:50:04 437.525
BEESAT 18 Dec 13:50:48 13:55:32 63° 288° (WNW) 14:00:13 436.000
TISAT 1 18 Dec 13:51:45 13:52:54 11° 303° (WNW) 13:54:02 437.305
KKS-1 18 Dec 13:58:18 14:02:29 37° 98° (E) 14:06:38 437.445
STARS 18 Dec 14:00:21 14:04:09 27° 95° (E) 14:07:56 437.465
JAS-2 18 Dec 14:00:23 14:05:14 19° 54° (NE) 14:09:49 435.910
ISS 18 Dec 14:00:51 14:03:30 23° 140° (SE) 14:06:09 145.825
AO-7 18 Dec 14:04:37 14:12:36 54° 61° (ENE) 14:20:39 29.400- 29.500
RS-15 18 Dec 14:07:15 14:17:46 51° 324° (NW) 14:28:31 29.354- 29.394
AIST 2 18 Dec 14:16:38 14:20:46 53° 122° (ESE) 14:24:59 435.215
BEESAT 3 18 Dec 14:24:16 14:28:21 62° 310° (NW) 14:32:30 437.485
Gurwin Techsat 1B 18 Dec 14:25:57 14:30:39 32° 265° (W) 14:35:23 435.225
HORYU 2 18 Dec 14:29:16 14:33:39 57° 259° (W) 14:38:06 437.375
AUBIESAT-1 18 Dec 14:31:40 14:36:10 64° 293° (WNW) 14:40:16 437.475
GONETS M04 18 Dec 14:32:33 14:38:36 20° 55° (NE) 14:44:36
PCSat 18 Dec 14:33:42 14:39:08 83° 304° (NW) 14:44:36 145.827
ITAMSAT 1 18 Dec 14:48:19 14:50:42 13° 273° (W) 14:53:05 435.822/435.867
M-CUBED/EXP-1 PRIME 18 Dec 14:55:41 14:59:52 36° 299° (WNW) 15:03:44 437.505
BEESAT 2 18 Dec 15:02:20 15:06:08 34° 317° (NW) 15:10:00 435.950
ITUPSAT 1 18 Dec 15:03:44 15:06:41 17° 302° (WNW) 15:09:37 437.325
SWISSCUBE 18 Dec 15:04:31 15:07:12 15° 303° (WNW) 15:09:51 437.505
KKS-1 18 Dec 15:35:16 15:38:59 26° 295° (WNW) 15:42:41 437.445
ISS 18 Dec 15:36:32 15:39:50 74° 338° (NNW) 15:43:08 145.825
STARS 18 Dec 15:36:39 15:40:41 35° 293° (WNW) 15:44:41 437.465
JAS-2 18 Dec 15:41:43 15:49:22 76° 72° (ENE) 15:56:21 435.910
Cubesat XI-IV 18 Dec 15:43:08 15:46:57 20° 58° (ENE) 15:50:46 437.490
AIST 2 18 Dec 15:56:04 15:59:40 26° 322° (NW) 16:03:19 435.215
AO-7 18 Dec 15:57:53 16:05:36 41° 262° (W) 16:13:25 29.400- 29.500
AIST 1 18 Dec 16:02:21 16:06:28 42° 93° (E) 16:10:36
BEESAT 3 18 Dec 16:05:03 16:07:22 14° 332° (NNW) 16:09:43 437.485
AUBIESAT-1 18 Dec 16:09:15 16:10:09 11° 313° (NW) 16:11:02 437.475
CUTE-I 18 Dec 16:15:53 16:20:39 35° 65° (ENE) 16:25:26 437.470
PCSat 18 Dec 16:19:20 16:23:23 21° 326° (NW) 16:27:27 145.827
RS-15 18 Dec 16:23:54 16:33:23 32° 357° (N) 16:43:08 29.354- 29.394
MOZHAYETS 4 18 Dec 16:26:31 16:31:00 46° 98° (E) 16:35:26
GONETS M04 18 Dec 16:28:18 16:37:08 77° 79° (E) 16:45:51
BEESAT 2 18 Dec 16:44:55 16:45:38 10° 339° (NNW) 16:46:21 435.950
ISS 18 Dec 17:13:38 17:16:44 37° 357° (N) 17:19:49 145.825
MaSat-1 18 Dec 17:16:22 17:17:56 16° 52° (NE) 17:19:34 437.345
Cubesat XI-IV 18 Dec 17:21:12 17:26:31 70° 257° (WSW) 17:31:52 437.490
JAS-2 18 Dec 17:28:52 17:34:54 25° 269° (W) 17:40:37 435.910
AIST 1 18 Dec 17:40:59 17:44:20 21° 291° (WNW) 17:47:42
CUBESAT XI-V 18 Dec 17:43:17 17:46:59 23° 93° (E) 17:50:40 437.345
CUTE-I 18 Dec 17:55:47 18:00:41 37° 263° (W) 18:05:37 437.470
DANDE 18 Dec 17:57:14 17:59:04 11° 52° (NE) 18:00:59 436.750
PRISM 18 Dec 18:02:54 18:07:05 70° 103° (ESE) 18:11:12 437.425
MOZHAYETS 4 18 Dec 18:04:20 18:07:58 23° 297° (WNW) 18:11:34
HO-68 18 Dec 18:09:26 18:15:16 28° 55° (NE) 18:21:07 435.675
GONETS M04 18 Dec 18:26:14 18:33:01 26° 281° (W) 18:39:46
COMPASS 1 18 Dec 18:30:25 18:31:59 12° 58° (ENE) 18:33:33 437.405
CUTE 1.7 + AOD 2 18 Dec 18:31:53 18:34:33 16° 61° (ENE) 18:37:14 437.475
SEEDS 18 Dec 18:31:58 18:34:15 14° 60° (ENE) 18:36:34 437.485
STRAND 1 18 Dec 18:34:41 18:39:44 59° 101° (ESE) 18:44:45 437.568
RS-15 18 Dec 18:38:50 18:49:22 45° 31° (NNE) 19:00:15 29.354- 29.394
BRITE-PL 18 Dec 18:46:28 18:49:44 23° 65° (ENE) 18:52:59 437.365/2234.400
MaSat-1 18 Dec 18:49:35 18:51:20 18° 248° (WSW) 18:53:08 437.345
ISS 18 Dec 18:50:27 18:53:42 56° 17° (NNE) 18:56:56 145.825
CUSAT 1 18 Dec 18:56:54 19:03:10 30° 66° (ENE) 19:10:15 437.405
Oscar 11 18 Dec 19:01:24 19:03:08 12° 58° (ENE) 19:04:52 145.826/435.025
CINEMA 3 18 Dec 19:06:38 19:08:35 13° 58° (ENE) 19:10:32 145.822/145.860
UKube-1 18 Dec 19:08:36 19:10:12 12° 57° (ENE) 19:11:49 .
CUBESAT XI-V 18 Dec 19:20:16 19:24:37 42° 291° (WNW) 19:28:56 437.345
GOMX 1 18 Dec 19:23:56 19:27:46 38° 69° (ENE) 19:31:38 467.674
BEESAT 3 18 Dec 19:27:19 19:27:42 10° 20° (NNE) 19:28:05 437.485
AAUSAT CUBESAT 2 18 Dec 19:29:31 19:33:24 37° 69° (ENE) 19:37:20 437.432
CANX-2 18 Dec 19:34:36 19:38:50 70° 74° (ENE) 19:43:08 2200.000
DANDE 18 Dec 19:37:16 19:44:07 46° 72° (ENE) 19:52:11 436.750
PRISM 18 Dec 19:39:53 19:42:05 14° 301° (WNW) 19:44:17 437.425
UWE-3 18 Dec 19:46:53 19:49:44 18° 62° (ENE) 19:52:38 435.000/436.395/437.385
FUNcube-1 18 Dec 19:52:00 19:54:46 17° 61° (ENE) 19:57:33 145.935
PCSat 18 Dec 19:53:19 19:55:13 12° 19° (NNE) 19:57:06 145.827
HO-68 18 Dec 19:55:13 20:02:24 73° 255° (WSW) 20:09:36 435.675
DOVE 4 18 Dec 19:59:23 20:03:29 66° 74° (ENE) 20:07:40 437.250
AISAT 18 Dec 20:00:53 20:03:20 15° 59° (ENE) 20:05:47 437.250
COMPASS 1 18 Dec 20:02:49 20:07:03 88° 256° (WSW) 20:11:20 437.405
BEESAT 2 18 Dec 20:03:48 20:06:07 14° 28° (NNE) 20:08:26 435.950
SEEDS 18 Dec 20:05:19 20:09:33 71° 258° (WSW) 20:13:50 437.485
CUTE 1.7 + AOD 2 18 Dec 20:05:48 20:10:01 61° 259° (W) 20:14:18 437.475
SO-50 18 Dec 20:06:23 20:08:07 12° 107° (ESE) 20:09:52 436.795
DX 1 18 Dec 20:08:07 20:12:13 42° 69° (ENE) 20:16:20 434.975-435.025
STRAND 1 18 Dec 20:14:41 20:18:32 22° 300° (WNW) 20:22:23 437.568
BRITE-PL 18 Dec 20:24:15 20:28:08 36° 263° (W) 20:31:59 437.365/2234.400
ISS 18 Dec 20:27:11 20:30:11 34° 216° (SW) 20:33:11 145.825
DELFI C3 18 Dec 20:32:51 20:36:57 76° 75° (ENE) 20:41:06 145.870
Oscar 11 18 Dec 20:34:17 20:38:38 88° 256° (WSW) 20:43:01 145.826/435.025
50 SAT 18 Dec 20:36:34 20:39:44 23° 65° (ENE) 20:42:57 437.505
CUBEBUG 2 18 Dec 20:38:55 20:43:02 65° 73° (ENE) 20:47:18 437.445
CUSAT 1 18 Dec 20:39:26 20:46:44 73° 262° (W) 20:55:09 437.405
CINEMA 3 18 Dec 20:41:03 20:45:12 76° 257° (WSW) 20:49:28 145.822/145.860
HUMSAT D 18 Dec 20:41:05 20:44:44 31° 67° (ENE) 20:48:26 437.325/437.525
UKube-1 18 Dec 20:41:21 20:45:41 88° 77° (ENE) 20:50:03 .
ESTCUBE 1 18 Dec 20:49:07 20:52:14 19° 61° (ENE) 20:55:22 437.505/2401.250
RS-15 18 Dec 20:51:36 21:02:49 79° 238° (WSW) 21:14:32 29.354- 29.394
VELOX 1 18 Dec 20:53:20 20:57:30 42° 69° (ENE) 21:01:41 145.980
AIST 2 18 Dec 20:57:48 21:00:56 19° 33° (NNE) 21:04:03 435.215
ZACube-1 18 Dec 20:59:03 21:03:13 78° 75° (ENE) 21:07:30 437.345
GOMX 1 18 Dec 21:02:55 21:06:05 21° 267° (W) 21:09:17 467.674
BEESAT 3 18 Dec 21:03:20 21:07:09 33° 43° (NE) 21:10:56 437.485
AAUSAT CUBESAT 2 18 Dec 21:05:51 21:09:12 23° 267° (W) 21:12:35 437.432
UNISAT 6 18 Dec 21:09:04 21:11:04 13° 87° (E) 21:13:05 437.425
CANX-2 18 Dec 21:13:20 21:15:17 13° 272° (W) 21:17:15 2200.000
DANDE 18 Dec 21:20:47 21:27:39 47° 267° (W) 21:35:39 436.750
UWE-3 18 Dec 21:21:50 21:25:55 52° 260° (W) 21:30:06 435.000/436.395/437.385
FUNcube-1 18 Dec 21:26:37 21:30:42 54° 260° (W) 21:34:55 145.935
SPROUT 18 Dec 21:32:50 21:34:20 12° 57° (ENE) 21:35:49 437.525
AISAT 18 Dec 21:35:00 21:39:25 74° 257° (WSW) 21:43:51 437.250
PCSat 18 Dec 21:35:32 21:40:25 32° 43° (NE) 21:45:16 145.827
DUCHIFAT 1 18 Dec 21:35:56 21:38:00 13° 89° (E) 21:40:03 145.980
TISAT 1 18 Dec 21:36:01 21:38:02 13° 59° (ENE) 21:40:04 437.305
ANTELSAT 18 Dec 21:39:19 21:43:11 25° 93° (E) 21:47:02 437.575/2403.000
DOVE 4 18 Dec 21:40:02 21:41:48 12° 272° (W) 21:43:34 437.250
BEESAT 2 18 Dec 21:41:03 21:45:15 60° 49° (NE) 21:49:22 435.950
SO-50 18 Dec 21:43:17 21:47:51 85° 126° (SE) 21:52:36 436.795
DX 1 18 Dec 21:45:17 21:48:39 22° 267° (W) 21:52:01 434.975-435.025
BUGSAT 1 18 Dec 21:45:41 21:47:31 13° 89° (E) 21:49:20 437.445
QB50P2 18 Dec 21:47:12 21:50:08 18° 91° (E) 21:53:04 145.880/145.840
YUBILEINY 18 Dec 21:47:24 21:51:42 15° 72° (ENE) 21:56:00 435.215
HO-68 18 Dec 21:47:43 21:51:20 14° 275° (W) 21:54:58 435.675
CUBEBUG 1 18 Dec 21:48:58 21:53:17 60° 72° (ENE) 21:57:35 437.445
POLYITAN 1 18 Dec 21:54:58 21:58:16 21° 93° (E) 22:01:34 437.675
NANOSAT C BR1 18 Dec 21:59:04 22:02:28 23° 94° (E) 22:05:52 145.865
50 SAT 18 Dec 22:11:06 22:14:48 35° 263° (W) 22:18:34 437.505
DELFI C3 18 Dec 22:11:32 22:12:46 11° 272° (W) 22:14:00 145.870
QB50P1 18 Dec 22:12:48 22:16:37 31° 96° (E) 22:20:25 145.935-145.965
TIGRISAT 18 Dec 22:15:46 22:20:22 52° 100° (E) 22:24:58 435.000
HUMSAT D 18 Dec 22:17:02 22:20:33 27° 265° (W) 22:24:08 437.325/437.525
CUBEBUG 2 18 Dec 22:18:15 22:20:16 13° 272° (W) 22:22:18 437.445
UKube-1 18 Dec 22:21:56 22:22:29 10° 273° (W) 22:23:02 .
ESTCUBE 1 18 Dec 22:24:13 22:28:42 59° 259° (W) 22:33:12 437.505/2401.250
CUSAT 1 18 Dec 22:24:28 22:28:56 17° 279° (W) 22:33:44 437.405
VELOX 1 18 Dec 22:30:49 22:34:17 22° 267° (W) 22:37:45 145.980
AIST 2 18 Dec 22:35:48 22:40:09 86° 233° (SW) 22:44:24 435.215
ZACube-1 18 Dec 22:39:02 22:40:12 11° 273° (W) 22:41:23 437.345
M-CUBED/EXP-1 PRIME 18 Dec 22:40:57 22:42:53 12° 48° (NE) 22:44:49 437.505
POPSAT HIP 1 18 Dec 22:40:57 22:45:11 62° 101° (ESE) 22:49:24 437.405
BEESAT 3 18 Dec 22:41:32 22:45:22 35° 242° (WSW) 22:49:07 437.485
UNISAT 6 18 Dec 22:43:45 22:48:28 84° 285° (WNW) 22:53:11 437.425
ITUPSAT 1 18 Dec 22:58:47 23:01:59 18° 59° (ENE) 23:05:11 437.325
SWISSCUBE 18 Dec 22:58:58 23:02:21 20° 60° (ENE) 23:05:44 437.505
SPROUT 18 Dec 23:05:28 23:09:45 90° 75° (ENE) 23:14:04 437.525
RS-15 18 Dec 23:05:33 23:13:26 23° 260° (W) 23:21:34 29.354- 29.394
TISAT 1 18 Dec 23:09:06 23:13:19 76° 257° (WSW) 23:17:32 437.305
DUCHIFAT 1 18 Dec 23:10:05 23:14:19 67° 287° (WNW) 23:18:32 145.980
ANTELSAT 18 Dec 23:15:41 23:20:08 43° 291° (WNW) 23:24:35 437.575/2403.000
PCSat 18 Dec 23:18:48 23:24:05 52° 244° (WSW) 23:29:18 145.827
BUGSAT 1 18 Dec 23:19:26 23:23:27 64° 287° (WNW) 23:27:27 437.445
BEESAT 2 18 Dec 23:20:15 23:23:05 18° 248° (WSW) 23:25:53 435.950
QB50P2 18 Dec 23:22:13 23:26:20 49° 289° (WNW) 23:30:28 145.880/145.840
BEESAT 18 Dec 23:23:31 23:27:37 29° 64° (ENE) 23:31:44 436.000
SO-50 18 Dec 23:25:25 23:29:02 22° 328° (NNW) 23:32:43 436.795
CUBEBUG 1 18 Dec 23:27:26 23:30:03 15° 270° (W) 23:32:39 437.445
POLYITAN 1 18 Dec 23:30:22 23:34:23 41° 290° (WNW) 23:38:25 437.675
NANOSAT C BR1 18 Dec 23:34:32 23:38:28 38° 291° (WNW) 23:42:24 145.865
YUBILEINY 18 Dec 23:38:08 23:46:47 69° 93° (E) 23:55:25 435.215
AUBIESAT-1 18 Dec 23:48:31 23:52:58 38° 62° (ENE) 23:57:29 437.475
QB50P1 18 Dec 23:48:48 23:52:27 28° 294° (WNW) 23:56:05 145.935-145.965
TIGRISAT 18 Dec 23:53:15 23:56:46 22° 298° (WNW) 00:00:19 435.000
M-CUBED/EXP-1 PRIME 19 Dec 00:12:11 00:16:59 65° 67° (ENE) 00:21:53 437.505
AIST 2 19 Dec 00:16:49 00:18:03 11° 252° (WSW) 00:19:16 435.215
POPSAT HIP 1 19 Dec 00:18:02 00:20:39 16° 299° (WNW) 00:23:16 437.405
UNISAT 6 19 Dec 00:22:30 00:24:32 13° 303° (WNW) 00:26:34 437.425
ITUPSAT 1 19 Dec 00:34:35 00:39:23 68° 258° (WSW) 00:44:12 437.325
SWISSCUBE 19 Dec 00:35:01 00:39:47 62° 258° (WSW) 00:44:33 437.505
O/OREOS (USA 219) 19 Dec 00:44:38 00:49:01 59° 111° (ESE) 00:53:25 437.305
KKS-1 19 Dec 00:59:38 01:03:54 50° 70° (ENE) 01:08:13 437.445
STARS 19 Dec 01:00:37 01:04:37 36° 68° (ENE) 01:08:38 437.465
Gurwin Techsat 1B 19 Dec 01:00:39 01:02:34 12° 86° (E) 01:04:28 435.225
BEESAT 19 Dec 01:00:52 01:05:20 38° 262° (W) 01:09:50 436.000
Oscar 19 19 Dec 01:03:44 01:08:48 49° 99° (E) 01:13:49 437.125/150
SO-50 19 Dec 01:10:44 01:11:24 10° 352° (N) 01:12:05 436.795
ITAMSAT 1 19 Dec 01:15:30 01:19:44 25° 93° (E) 01:23:57 435.822/435.867
AUBIESAT-1 19 Dec 01:23:34 01:27:54 33° 259° (W) 01:32:20 437.475
YUBILEINY 19 Dec 01:36:48 01:44:19 31° 296° (WNW) 01:51:53 435.215
M-CUBED/EXP-1 PRIME 19 Dec 01:48:57 01:52:22 19° 265° (W) 01:55:51 437.505
AO-7 19 Dec 02:05:55 02:08:29 12° 82° (E) 02:11:03 29.400- 29.500
AIST 1 19 Dec 02:07:18 02:09:55 16° 66° (ENE) 02:12:31
HORYU 2 19 Dec 02:18:13 02:21:47 22° 93° (E) 02:25:20 437.375
O/OREOS (USA 219) 19 Dec 02:25:31 02:28:49 20° 311° (NW) 02:32:07 437.305
STARS 19 Dec 02:37:32 02:41:11 26° 266° (W) 02:44:52 437.465
KKS-1 19 Dec 02:37:44 02:40:51 19° 268° (W) 02:43:59 437.445
Gurwin Techsat 1B 19 Dec 02:38:01 02:43:22 82° 104° (ESE) 02:48:41 435.225
Oscar 19 19 Dec 02:43:36 02:47:52 26° 298° (WNW) 02:52:07 437.125/150
SO-50 19 Dec 02:52:02 02:54:09 13° 18° (NNE) 02:56:16 436.795
ITAMSAT 1 19 Dec 02:54:30 02:59:28 49° 292° (WNW) 03:04:25 435.822/435.867
PRISM 19 Dec 03:25:08 03:25:55 10° 56° (NE) 03:26:41 437.425
MOZHAYETS 4 19 Dec 03:31:26 03:36:02 63° 73° (ENE) 03:40:39
GONETS M04 19 Dec 03:40:36 03:46:01 18° 74° (ENE) 03:51:25
AIST 1 19 Dec 03:43:47 03:48:00 57° 265° (W) 03:52:10
HORYU 2 19 Dec 03:54:21 03:58:39 44° 291° (WNW) 04:02:55 437.375
AO-7 19 Dec 03:54:50 04:03:07 59° 103° (ESE) 04:11:19 29.400- 29.500
STRAND 1 19 Dec 04:16:47 04:20:16 19° 58° (ENE) 04:23:44 437.568
Gurwin Techsat 1B 19 Dec 04:19:17 04:22:42 18° 303° (WNW) 04:26:06 435.225
VERMONT LUNAR 19 Dec 04:30:51 04:33:36 21° 166° (SSE) 04:36:21 437.305
SO-50 19 Dec 04:31:41 04:36:08 34° 40° (NE) 04:40:37 436.795
JAS-2 19 Dec 04:34:04 04:39:41 46° 97° (E) 04:44:47 435.910
PHONESAT 2.4 19 Dec 04:36:03 04:38:42 19° 163° (SSE) 04:41:22 2401.200-2431.200
CUBESAT XI-V 19 Dec 04:49:45 04:53:56 33° 67° (ENE) 04:58:07 437.345
PRISM 19 Dec 04:56:29 05:00:43 80° 74° (ENE) 05:04:58 437.425
MOZHAYETS 4 19 Dec 05:10:45 05:13:41 17° 271° (W) 05:16:38
GONETS M04 19 Dec 05:32:31 05:41:21 79° 96° (E) 05:50:12
Cubesat XI-IV 19 Dec 05:35:28 05:40:22 37° 97° (E) 05:45:15 437.490
AO-7 19 Dec 05:48:03 05:55:37 40° 304° (NW) 06:03:09 29.400- 29.500
STRAND 1 19 Dec 05:53:49 05:58:55 72° 257° (WSW) 06:04:03 437.568
VERMONT LUNAR 19 Dec 06:08:22 06:11:23 27° 183° (S) 06:14:25 437.305
CUTE-I 19 Dec 06:09:03 06:14:22 69° 103° (ESE) 06:19:40 437.470
SO-50 19 Dec 06:12:10 06:16:50 46° 240° (WSW) 06:21:31 436.795
PHONESAT 2.4 19 Dec 06:13:41 06:16:49 28° 180° (S) 06:19:58 2401.200-2431.200
JAS-2 19 Dec 06:19:34 06:24:33 29° 300° (WNW) 06:29:09 435.910
CUBESAT XI-V 19 Dec 06:27:14 06:31:23 31° 265° (W) 06:35:31 437.345
PRISM 19 Dec 06:35:35 06:36:48 11° 272° (W) 06:38:02 437.425
Cubesat XI-IV 19 Dec 07:15:39 07:20:26 35° 295° (WNW) 07:25:13 437.490
CANX-2 19 Dec 07:20:30 07:20:40 10° 86° (E) 07:20:50 2200.000
HO-68 19 Dec 07:20:46 07:25:31 19° 88° (E) 07:30:13 435.675
GONETS M04 19 Dec 07:31:57 07:39:12 28° 299° (WNW) 07:46:30
AO-7 19 Dec 07:43:09 07:46:06 12° 328° (NNW) 07:49:04 29.400- 29.500
COMPASS 1 19 Dec 07:45:31 07:47:27 13° 88° (E) 07:49:23 437.405
VERMONT LUNAR 19 Dec 07:46:51 07:49:06 16° 200° (SSW) 07:51:20 437.305
SEEDS 19 Dec 07:48:06 07:50:49 16° 90° (E) 07:53:32 437.485
CUTE 1.7 + AOD 2 19 Dec 07:48:59 07:52:06 19° 91° (E) 07:55:11 437.475
CUTE-I 19 Dec 07:50:07 07:53:56 20° 302° (WNW) 07:57:44 437.470
PHONESAT 2.4 19 Dec 07:52:16 07:54:57 19° 197° (SSW) 07:57:37 2401.200-2431.200
DOVE 4 19 Dec 07:55:50 07:58:41 16° 90° (E) 08:01:37 437.250
UNISAT 6 19 Dec 08:11:26 08:14:12 17° 60° (ENE) 08:17:01 437.425
MaSat-1 19 Dec 08:12:21 08:12:58 11° 109° (ESE) 08:13:35 437.345
CUSAT 1 19 Dec 08:15:39 08:17:12 12° 77° (ENE) 08:18:53 437.405
Oscar 11 19 Dec 08:20:11 08:22:27 14° 89° (E) 08:24:43 145.826/435.025
BRITE-PL 19 Dec 08:24:17 08:28:45 49° 100° (E) 08:33:33 437.365/2234.400
UKube-1 19 Dec 08:28:14 08:29:50 12° 88° (E) 08:31:25 .
CUBEBUG 2 19 Dec 08:28:41 08:30:34 12° 88° (E) 08:32:28 437.445
DUCHIFAT 1 19 Dec 08:32:02 08:34:39 16° 61° (ENE) 08:37:17 145.980
CINEMA 3 19 Dec 08:32:58 08:36:36 22° 92° (E) 08:40:20 145.822/145.860
BUGSAT 1 19 Dec 08:39:19 08:41:44 15° 61° (ENE) 08:44:08 437.445
ANTELSAT 19 Dec 08:41:51 08:45:41 30° 66° (ENE) 08:49:37 437.575/2403.000
QB50P2 19 Dec 08:43:42 08:46:54 21° 64° (ENE) 08:50:07 145.880/145.840
AAUSAT CUBESAT 2 19 Dec 08:45:19 08:49:25 46° 99° (E) 08:53:30 437.432
ZACube-1 19 Dec 08:46:16 08:48:26 13° 88° (E) 08:50:36 437.345
POLYITAN 1 19 Dec 08:51:37 08:55:05 25° 65° (ENE) 08:58:33 437.675
CANX-2 19 Dec 08:52:53 08:57:15 89° 284° (WNW) 09:01:34 2200.000
NANOSAT C BR1 19 Dec 08:55:14 08:58:46 27° 66° (ENE) 09:02:19 145.865
DANDE 19 Dec 08:57:28 09:00:27 25° 86° (E) 09:04:11 436.750
GOMX 1 19 Dec 08:59:14 09:03:53 78° 103° (ESE) 09:08:53 467.674
HO-68 19 Dec 09:06:59 09:14:12 89° 107° (ESE) 09:21:21 435.675
UWE-3 19 Dec 09:08:48 09:12:38 26° 94° (E) 09:16:30 435.000/436.395/437.385
QB50P1 19 Dec 09:08:57 09:12:48 36° 68° (ENE) 09:16:41 145.935-145.965
FUNcube-1 19 Dec 09:12:22 09:16:00 24° 93° (E) 09:19:39 145.935
O/OREOS (USA 219) 19 Dec 09:12:28 09:16:18 27° 53° (NE) 09:20:09 437.305
TIGRISAT 19 Dec 09:17:50 09:22:09 66° 73° (ENE) 09:26:36 435.000
COMPASS 1 19 Dec 09:19:24 09:23:41 70° 286° (WNW) 09:27:54 437.405
SEEDS 19 Dec 09:22:47 09:27:00 55° 288° (WNW) 09:31:11 437.485
AISAT 19 Dec 09:24:05 09:27:00 17° 91° (E) 09:29:55 437.250
CUTE 1.7 + AOD 2 19 Dec 09:24:07 09:28:17 47° 289° (WNW) 09:32:24 437.475
DX 1 19 Dec 09:29:23 09:33:38 50° 100° (E) 09:37:51 434.975-435.025
DOVE 4 19 Dec 09:32:12 09:36:51 70° 286° (WNW) 09:41:47 437.250
POPSAT HIP 1 19 Dec 09:37:03 09:41:13 70° 74° (ENE) 09:45:26 437.405
MaSat-1 19 Dec 09:44:18 09:46:10 21° 306° (NW) 09:48:00 437.345
YUBILEINY 19 Dec 09:44:26 09:52:32 41° 68° (ENE) 10:00:34 435.215
DELFI C3 19 Dec 09:45:39 09:49:49 87° 104° (ESE) 09:53:56 145.870
UNISAT 6 19 Dec 09:46:09 09:50:29 64° 259° (WSW) 09:54:58 437.425
50 SAT 19 Dec 09:48:22 09:51:50 25° 94° (E) 09:55:16 437.505
Oscar 11 19 Dec 09:54:44 09:59:06 67° 287° (WNW) 10:03:25 145.826/435.025
CUSAT 1 19 Dec 09:55:30 09:59:09 62° 286° (WNW) 10:04:07 437.405
HUMSAT D 19 Dec 09:57:46 10:01:50 39° 98° (E) 10:05:54 437.325/437.525
UKube-1 19 Dec 10:02:12 10:06:33 78° 286° (WNW) 10:10:52 .
CUBEBUG 2 19 Dec 10:03:13 10:07:50 84° 285° (WNW) 10:12:33 437.445
BRITE-PL 19 Dec 10:03:32 10:07:03 22° 295° (WNW) 10:10:46 437.365/2234.400
DUCHIFAT 1 19 Dec 10:05:57 10:10:06 58° 259° (W) 10:14:16 145.980
CINEMA 3 19 Dec 10:09:32 10:14:02 49° 289° (WNW) 10:18:42 145.822/145.860
BUGSAT 1 19 Dec 10:12:45 10:16:48 59° 259° (WSW) 10:20:51 437.445
ESTCUBE 1 19 Dec 10:14:31 10:18:07 23° 93° (E) 10:21:42 437.505/2401.250
VELOX 1 19 Dec 10:17:17 10:21:38 55° 101° (E) 10:25:59 145.980
ANTELSAT 19 Dec 10:18:34 10:22:27 31° 265° (W) 10:26:27 437.575/2403.000
QB50P2 19 Dec 10:18:34 10:22:35 42° 261° (W) 10:26:37 145.880/145.840
ZACube-1 19 Dec 10:20:48 10:25:18 76° 286° (WNW) 10:29:52 437.345
AAUSAT CUBESAT 2 19 Dec 10:21:40 10:24:48 20° 297° (WNW) 10:27:55 437.432
POLYITAN 1 19 Dec 10:27:02 10:30:54 35° 263° (W) 10:34:47 437.675
NANOSAT C BR1 19 Dec 10:30:46 10:34:33 32° 264° (W) 10:38:22 145.865
CANX-2 19 Dec 10:30:57 10:32:30 12° 302° (WNW) 10:34:03 2200.000
GOMX 1 19 Dec 10:38:49 10:41:32 16° 299° (WNW) 10:44:20 467.674
DANDE 19 Dec 10:40:38 10:43:49 27° 296° (WNW) 10:47:53 436.750
UWE-3 19 Dec 10:45:02 10:49:16 39° 291° (WNW) 10:53:34 435.000/436.395/437.385
QB50P1 19 Dec 10:45:24 10:48:48 24° 266° (W) 10:52:13 145.935-145.965
Oscar 19 19 Dec 10:47:08 10:50:14 16° 56° (ENE) 10:53:20 437.125/150
